EW9479 Weather Reports


Display with metric or nautical units.
time (UTC)temp
F
wind
direction
speed
MPH
gust
MPH
rain 1hr
in
rain 24hr
in
rain mn
in
humidity
%
barometer
mb
20260503004547 61 59 2.0 6.0 0.00 0.00 0.00 46 1018.8
20260503003044 63 58 1.0 4.0 0.00 0.00 0.00 45 1018.6
20260503001544 64 4 2.0 6.0 0.00 0.00 0.00 43 1018.4
20260503000059 65 321 2.0 7.0 0.00 0.00 0.00 42 1018.2
20260502234548 66 314 3.0 8.0 0.00 0.00 0.00 42 1018.0
20260502233038 66 309 3.0 6.0 0.00 0.00 0.00 41 1018.0
20260502231539 65 55 3.0 8.0 0.00 0.00 0.00 43 1017.9
20260502230038 66 309 2.0 9.0 0.00 0.00 0.00 43 1017.9
20260502224537 67 300 9.0 17.0 0.00 0.00 0.00 39 1017.9
20260502223044 68 292 6.0 13.0 0.00 0.00 0.00 39 1017.7
20260502221541 66 331 8.0 13.0 0.00 0.00 0.00 39 1017.7
20260502220048 67 333 5.0 15.0 0.00 0.00 0.00 40 1017.7
20260502214539 68 286 6.0 12.0 0.00 0.00 0.00 41 1017.5
20260502213041 68 274 7.0 14.0 0.00 0.00 0.00 37 1017.4
20260502211544 68 295 9.0 17.0 0.00 0.00 0.00 39 1017.4
20260502210046 67 243 7.0 14.0 0.00 0.00 0.00 43 1017.5
20260502204542 66 267 4.0 13.0 0.00 0.00 0.00 47 1017.6
20260502203038 67 287 4.0 14.0 0.00 0.00 0.00 45 1017.7
20260502201545 67 299 6.0 12.0 0.00 0.00 0.00 40 1017.7
20260502200104 66 308 6.0 13.0 0.00 0.00 0.00 41 1018.0
20260502194543 68 304 6.0 20.0 0.00 0.00 0.00 38 1018.0
20260502193043 68 288 5.0 11.0 0.00 0.00 0.00 41 1018.1
20260502191544 66 279 5.0 15.0 0.00 0.00 0.00 41 1018.2
20260502190046 66 317 6.0 13.0 0.00 0.00 0.00 39 1018.3
20260502184539 65 288 4.0 9.0 0.00 0.00 0.00 43 1018.6
20260502183048 66 325 7.0 13.0 0.00 0.00 0.00 44 1018.6
20260502181543 66 281 8.0 13.0 0.00 0.00 0.00 46 1018.7
20260502163048 65 294 3.0 10.0 0.00 0.00 0.00 43 1019.7
20260502161539 65 200 4.0 9.0 0.00 0.00 0.00 46 1019.8
20260502151600 62 212 2.0 5.0 0.00 0.00 0.00 47 1019.9
20260502123042 45 0 0.0 1.0 0.00 0.00 0.00 91 1019.1
20260502121543 43 0 0.0 0.0 0.00 0.00 0.00 91 1018.8
20260502114538 41 23 0.0 1.0 0.00 0.00 0.00 91 1018.7
20260502113048 41 23 0.0 0.0 0.00 0.00 0.00 91 1018.4
20260502111540 41 0 0.0 0.0 0.00 0.00 0.00 90 1018.4
20260502110049 41 0 0.0 1.0 0.00 0.00 0.00 90 1018.0
20260502104541 42 0 0.0 0.0 0.00 0.00 0.00 90 1018.0
20260502103039 42 0 0.0 0.0 0.00 0.00 0.00 90 1018.0
20260502101538 42 23 0.0 1.0 0.00 0.00 0.00 89 1018.1
20260502090106 43 0 0.0 0.0 0.00 0.00 0.00 86 1017.8
20260502070050 48 0 0.0 0.0 0.00 0.00 0.00 81 1017.8
20260502064558 49 0 0.0 0.0 0.00 0.00 0.00 79 1018.1
20260502063050 49 0 0.0 0.0 0.00 0.00 0.00 78 1018.5
20260502061539 50 0 0.0 0.0 0.00 0.00 0.00 78 1018.6
20260502060038 50 0 0.0 1.0 0.00 0.00 0.00 76 1018.5
20260502054538 50 0 0.0 1.0 0.00 0.00 0.00 75 1018.5
20260502053038 50 0 0.0 0.0 0.00 0.00 0.00 75 1018.4
20260502051537 51 0 0.0 1.0 0.00 0.00 0.00 76 1018.4
20260502050043 51 0 0.0 0.0 0.00 0.00 0.00 75 1018.6
20260502044539 51 0 0.0 0.0 0.00 0.00 0.00 74 1018.4
20260502043039 52 0 0.0 1.0 0.00 0.00 0.00 70 1018.1
20260502041556 52 0 0.0 1.0 0.00 0.00 0.00 70 1017.8
20260502040038 52 0 0.0 1.0 0.00 0.00 0.00 71 1017.7
20260502034537 53 54 0.0 3.0 0.00 0.00 0.00 69 1017.6
20260502033044 53 34 1.0 3.0 0.00 0.00 0.00 71 1017.6
20260502031541 53 41 0.0 1.0 0.00 0.00 0.00 71 1017.9
20260502030040 53 0 0.0 2.0 0.00 0.00 0.00 70 1018.3
20260502024546 52 0 0.0 1.0 0.00 0.00 0.00 72 1018.6
20260502023102 53 0 0.0 0.0 0.00 0.00 0.00 71 1018.8
20260502021539 53 0 0.0 0.0 0.00 0.00 0.00 71 1018.6
20260502020038 54 0 0.0 0.0 0.00 0.00 0.00 66 1018.5
20260502014538 55 0 0.0 1.0 0.00 0.00 0.00 65 1018.1
20260502013044 55 0 0.0 0.0 0.00 0.00 0.00 63 1017.5
20260502011544 56 0 0.0 0.0 0.00 0.00 0.00 62 1017.5
20260502010041 56 0 0.0 1.0 0.00 0.00 0.00 61 1017.3